Location: Waco, TX
(31.5480°N, 97.1670°W)
Time: 16:30:20
(UTC-05:00)

ISS - Pass Details

Date: 15 October 2018
Orbit: 403 x 408 km, 51.6° (Epoch: 17 October)

Event Time Altitude Azimuth Distance (km) Brightness Sun altitude
Rises 10:50:37 0° 221° (SW) 2,307 0.0 37.1°
Reaches altitude 10° 10:52:41 10° 220° (SW) 1,453 -0.9 37.4°
Maximum altitude 10:55:56 77° 134° (SE) 418 -2.8 37.9°
Drops below altitude 10° 10:59:13 10° 48° (NE) 1,464 -0.9 38.4°
Sets 11:01:18 0° 47° (NE) 2,327 0.0 38.7°
